| time (UTC) | temp F | wind direction | speed knots | gust knots | rain 1hr in | rain 24hr in | rain mn in | humidity % | barometer mb |
| 20260504044551 | 62 | 149 | 2.6 | 3.5 | 0.00 | 0.00 | 0.00 | 54 | 1010.8 |
| 20260504041540 | 64 | 153 | 3.5 | 5.2 | 0.00 | 0.00 | 0.00 | 51 | 1010.6 |
| 20260504040043 | 66 | 157 | 3.5 | 5.2 | 0.00 | 0.00 | 0.00 | 48 | 1010.3 |
| 20260504033036 | 68 | 164 | 3.5 | 5.2 | 0.00 | 0.00 | 0.00 | 46 | 1010.1 |
| 20260504031645 | 71 | 177 | 2.6 | 4.3 | 0.00 | 0.00 | 0.00 | 44 | 1009.9 |
| 20260504030106 | 74 | 167 | 2.6 | 4.3 | 0.00 | 0.00 | 0.00 | 39 | 1009.8 |
| 20260504024535 | 77 | 229 | 0.9 | 2.6 | 0.00 | 0.00 | 0.00 | 34 | 1009.8 |
| 20260504023035 | 80 | 289 | 0.0 | 1.7 | 0.00 | 0.00 | 0.00 | 32 | 1009.8 |
| 20260504021537 | 80 | 292 | 1.7 | 3.5 | 0.00 | 0.00 | 0.00 | 30 | 1010.1 |
| 20260504014534 | 81 | 297 | 1.7 | 3.5 | 0.00 | 0.00 | 0.00 | 29 | 1010.2 |
| 20260504013035 | 82 | 300 | 2.6 | 4.3 | 0.00 | 0.00 | 0.00 | 27 | 1010.2 |
| 20260504011538 | 82 | 323 | 1.7 | 4.3 | 0.00 | 0.00 | 0.00 | 25 | 1010.5 |
| 20260504010110 | 83 | 318 | 3.5 | 5.2 | 0.00 | 0.00 | 0.00 | 25 | 1010.6 |
| 20260504004535 | 84 | 335 | 1.7 | 4.3 | 0.00 | 0.00 | 0.00 | 24 | 1010.7 |
| 20260504003033 | 83 | 338 | 1.7 | 4.3 | 0.00 | 0.00 | 0.00 | 25 | 1010.8 |
| 20260504001531 | 83 | 330 | 3.5 | 7.0 | 0.00 | 0.00 | 0.00 | 25 | 1010.9 |
| 20260504000036 | 83 | 4 | 3.5 | 7.8 | 0.00 | 0.00 | 0.00 | 25 | 1011.0 |
| 20260503234535 | 83 | 5 | 3.5 | 8.7 | 0.00 | 0.00 | 0.00 | 25 | 1011.1 |
| 20260503233151 | 83 | 3 | 2.6 | 6.1 | 0.00 | 0.00 | 0.00 | 25 | 1011.3 |
| 20260503223033 | 83 | 359 | 3.5 | 12.2 | 0.00 | 0.00 | 0.00 | 27 | 1012.1 |
| 20260503221535 | 83 | 2 | 2.6 | 7.0 | 0.00 | 0.00 | 0.00 | 27 | 1012.3 |
| 20260503220036 | 82 | 73 | 3.5 | 9.6 | 0.00 | 0.00 | 0.00 | 28 | 1012.5 |
| 20260503213034 | 82 | 38 | 3.5 | 7.8 | 0.00 | 0.00 | 0.00 | 28 | 1012.8 |
| 20260503204535 | 82 | 37 | 4.3 | 10.4 | 0.00 | 0.00 | 0.00 | 27 | 1013.5 |
| 20260503203032 | 82 | 19 | 2.6 | 7.0 | 0.00 | 0.00 | 0.00 | 27 | 1013.6 |
| 20260503201536 | 81 | 82 | 2.6 | 8.7 | 0.00 | 0.00 | 0.00 | 27 | 1013.8 |
| 20260503200142 | 80 | 70 | 4.3 | 17.4 | 0.00 | 0.00 | 0.00 | 28 | 1013.9 |
| 20260503194535 | 80 | 68 | 5.2 | 13.9 | 0.00 | 0.00 | 0.00 | 28 | 1014.1 |
| 20260503193037 | 80 | 92 | 6.1 | 12.2 | 0.00 | 0.00 | 0.00 | 29 | 1014.1 |
| 20260503191643 | 80 | 9 | 3.5 | 9.6 | 0.00 | 0.00 | 0.00 | 29 | 1014.3 |
| 20260503190035 | 80 | 22 | 3.5 | 9.6 | 0.00 | 0.00 | 0.00 | 31 | 1014.3 |
| 20260503184535 | 79 | 22 | 3.5 | 8.7 | 0.00 | 0.00 | 0.00 | 34 | 1014.4 |
| 20260503183034 | 77 | 355 | 5.2 | 12.2 | 0.00 | 0.00 | 0.00 | 40 | 1014.5 |
| 20260503181535 | 75 | 296 | 4.3 | 7.0 | 0.00 | 0.00 | 0.00 | 44 | 1014.7 |
| 20260503174536 | 72 | 312 | 3.5 | 6.1 | 0.00 | 0.00 | 0.00 | 48 | 1015.0 |
| 20260503173037 | 71 | 342 | 2.6 | 6.1 | 0.00 | 0.00 | 0.00 | 49 | 1015.2 |
| 20260503171534 | 70 | 345 | 0.9 | 3.5 | 0.00 | 0.00 | 0.00 | 50 | 1015.3 |
| 20260503160142 | 65 | 14 | 0.0 | 1.7 | 0.00 | 0.00 | 0.00 | 56 | 1015.5 |
| 20260503110141 | 51 | 158 | 3.5 | 3.5 | 0.00 | 0.00 | 0.00 | 76 | 1015.3 |
| 20260503081533 | 54 | 157 | 2.6 | 4.3 | 0.00 | 0.00 | 0.00 | 70 | 1015.3 |
| 20260503071533 | 55 | 151 | 2.6 | 4.3 | 0.00 | 0.00 | 0.00 | 73 | 1015.3 |